WX2DX-2 Weather Reports


Display with metric or nautical units.
time (UTC)temp
F
wind
direction
speed
MPH
gust
MPH
rain 1hr
in
rain 24hr
in
rain mn
in
humidity
%
barometer
mb
20260906054549 56 112 0.0 0.0 0.00 0.01 0.00 93 1015.8
20260906053043 57 112 0.0 1.0 0.00 0.01 0.00 93 1015.8
20260906051548 57 112 0.0 2.0 0.00 0.01 0.00 94 1015.8
20260906050105 57 111 1.0 3.0 0.00 0.01 0.00 94 1015.8
20260906044538 57 26 1.0 2.0 0.00 0.01 0.00 94 1015.8
20260906043038 57 126 0.0 2.0 0.00 0.01 0.00 94 1015.7
20260906041535 57 135 1.0 3.0 0.00 0.01 0.00 94 1015.7
20260906040036 58 148 0.0 4.0 0.00 0.01 0.00 94 1015.6
20260906034539 58 65 0.0 0.0 0.00 0.02 0.01 93 1015.6
20260906033029 58 69 0.0 0.0 0.00 0.02 0.01 93 1015.6
20260906031529 58 73 0.0 0.0 0.00 0.02 0.01 93 1015.5
20260906030027 59 131 0.0 0.0 0.00 0.02 0.01 92 1015.5
20260906024524 59 138 0.0 0.0 0.00 0.02 0.01 92 1015.3
20260906023025 60 138 0.0 0.0 0.00 0.02 0.01 92 1015.2
20260906021520 60 138 0.0 1.0 0.00 0.02 0.01 90 1015.0
20260906020017 61 137 2.0 3.0 0.00 0.02 0.01 90 1014.9
20260906014516 62 82 0.0 0.0 0.00 0.02 0.01 89 1014.8
20260906013016 61 45 0.0 2.0 0.00 0.02 0.01 89 1014.5
20260906011514 61 5 0.0 0.0 0.00 0.02 0.01 88 1014.4
20260906010012 62 5 0.0 1.0 0.00 0.02 0.01 87 1014.4
20260906004510 63 5 0.0 2.0 0.00 0.02 0.01 86 1014.2
20260906003008 63 5 1.0 2.0 0.00 0.02 0.01 84 1014.1
20260906001505 64 5 0.0 1.0 0.00 0.02 0.01 84 1013.9
20260906000001 66 5 0.0 1.0 0.00 0.02 0.01 82 1013.7
20260905234614 68 5 1.0 2.0 0.00 0.02 0.01 77 1013.7
20260905233100 70 5 0.0 2.0 0.00 0.02 0.01 73 1013.6
20260905231600 72 22 0.0 3.0 0.00 0.02 0.01 69 1013.5
20260905230059 74 350 1.0 4.0 0.00 0.02 0.01 64 1013.5
20260905224601 76 355 1.0 6.0 0.00 0.02 0.01 60 1013.4
20260905223058 76 350 3.0 9.0 0.00 0.02 0.01 56 1013.3
20260905221558 77 68 3.0 9.0 0.00 0.02 0.01 59 1013.1
20260905220057 78 84 3.0 8.0 0.00 0.02 0.01 58 1013.0
20260905214606 79 48 3.0 7.0 0.00 0.02 0.01 58 1013.0
20260905213059 80 49 3.0 8.0 0.00 0.02 0.01 55 1012.8
20260905211600 79 298 2.0 6.0 0.00 0.02 0.01 56 1012.9
20260905210054 79 23 3.0 12.0 0.00 0.02 0.01 56 1012.8
20260905204553 79 59 2.0 9.0 0.00 0.02 0.01 56 1013.0
20260905203053 78 19 4.0 11.0 0.00 0.02 0.01 59 1013.0
20260905201551 80 360 3.0 10.0 0.00 0.02 0.01 55 1012.8
20260905200056 80 341 2.0 9.0 0.00 0.02 0.01 58 1012.8
20260905194555 78 360 3.0 8.0 0.00 0.02 0.01 58 1012.8
20260905193049 79 329 1.0 8.0 0.00 0.02 0.01 57 1013.0
20260905191548 79 267 1.0 6.0 0.00 0.02 0.01 68 1013.0
20260905190048 78 26 1.0 5.0 0.00 0.02 0.01 63 1013.1
20260905184603 78 345 2.0 9.0 0.00 0.02 0.01 62 1013.2
20260905183047 78 80 2.0 9.0 0.00 0.02 0.01 58 1013.3
20260905181546 79 360 3.0 7.0 0.00 0.02 0.01 59 1013.4
20260905180049 79 336 2.0 9.0 0.00 0.02 0.01 65 1013.4
20260905174545 78 277 4.0 10.0 0.00 0.02 0.01 68 1013.6
20260905173039 77 312 2.0 9.0 0.00 0.02 0.01 66 1013.8
20260905171539 77 5 4.0 9.0 0.00 0.02 0.01 63 1013.9
20260905170036 77 28 4.0 8.0 0.00 0.02 0.01 60 1014.0
20260905164532 76 355 2.0 6.0 0.00 0.02 0.01 70 1014.2
20260905163029 75 355 1.0 5.0 0.00 0.02 0.01 75 1014.4
20260905161527 74 312 3.0 7.0 0.00 0.02 0.01 74 1014.6
20260905160041 73 269 1.0 8.0 0.00 0.02 0.01 74 1014.7
20260905154522 74 290 0.0 4.0 0.00 0.02 0.01 74 1014.7
20260905153018 72 52 0.0 2.0 0.00 0.02 0.01 78 1014.8
20260905151516 72 39 0.0 3.0 0.00 0.02 0.01 81 1014.8
20260905150023 71 33 0.0 3.0 0.00 0.02 0.01 80 1014.7
20260905144536 71 76 0.0 4.0 0.00 0.02 0.01 80 1014.6
20260905143019 72 73 1.0 4.0 0.00 0.02 0.01 79 1014.4
20260905141509 71 45 0.0 3.0 0.00 0.02 0.01 80 1014.4
20260905140010 70 289 1.0 3.0 0.00 0.02 0.01 81 1014.2
20260905134513 70 68 2.0 4.0 0.01 0.02 0.01 82 1014.3
20260905133008 70 86 2.0 4.0 0.01 0.02 0.01 81 1014.2
20260905131507 71 71 3.0 5.0 0.01 0.02 0.01 80 1014.3
20260905130004 70 49 0.0 5.0 0.01 0.02 0.01 82 1014.3
20260905124502 69 73 2.0 6.0 0.00 0.01 0.00 83 1014.3
20260905123101 68 59 2.0 4.0 0.00 0.01 0.00 87 1014.2
20260905121558 68 40 0.0 3.0 0.00 0.01 0.00 89 1014.0
20260905120058 67 63 1.0 3.0 0.00 0.01 0.00 89 1013.9
20260905114625 67 9 1.0 5.0 0.00 0.01 0.00 92 1014.0
20260905113048 66 355 0.0 2.0 0.00 0.01 0.00 94 1014.2
20260905111552 66 17 0.0 1.0 0.00 0.01 0.00 94 1014.0
20260905110045 66 17 0.0 0.0 0.00 0.01 0.00 94 1013.5
20260905104542 66 17 0.0 1.0 0.00 0.01 0.00 93 1013.3
20260905103042 67 17 0.0 1.0 0.00 0.01 0.00 93 1013.2
20260905101541 67 17 0.0 0.0 0.00 0.01 0.00 92 1013.4
20260905100056 67 17 0.0 2.0 0.00 0.01 0.00 92 1013.2
20260905094638 67 17 0.0 2.0 0.00 0.01 0.00 92 1013.1
20260905093035 68 49 2.0 4.0 0.00 0.01 0.00 91 1013.0
20260905091535 68 86 2.0 8.0 0.00 0.01 0.00 91 1013.0
20260905090032 69 5 0.0 4.0 0.00 0.01 0.00 92 1012.9
20260905084530 69 308 2.0 12.0 0.00 0.01 0.00 92 1012.7
20260905083030 69 360 0.0 3.0 0.00 0.01 0.00 93 1012.7
20260905081528 69 298 0.0 0.0 0.00 0.01 0.00 94 1013.0
20260905080028 69 282 0.0 0.0 0.00 0.01 0.00 94 1013.0
20260905074532 69 325 0.0 0.0 0.00 0.01 0.00 94 1013.0
20260905073033 69 325 0.0 0.0 0.00 0.01 0.00 94 1013.1
20260905071525 69 325 0.0 0.0 0.00 0.01 0.00 94 1013.2
20260905070020 69 325 0.0 0.0 0.00 0.01 0.00 94 1013.4
20260905064518 69 325 0.0 3.0 0.00 0.01 0.00 94 1013.5
20260905063016 70 315 0.0 5.0 0.00 0.01 0.00 94 1013.6
20260905061514 70 284 0.0 2.0 0.00 0.01 0.00 94 1013.8
20260905060015 70 309 0.0 3.0 0.00 0.01 0.00 95 1014.0